Tracking 25710 objects as of 5-Jul-2022
HD Live streaming from Space Station
objects crossing your sky now

FENGYUN 1C DEB

Track FENGYUN 1C DEB now!
10-day predictions


NORAD ID: 37911
Int'l Code: 1999-025ENL
Perigee: 831.1 km
Apogee: 1,053.2 km
Inclination: 99.4 °
Period: 103.7 minutes
Semi major axis: 7313 km
RCS: 0.0022 m2 (small)
Launch date: May 10, 1999
Source: People's Republic of China (PRC)
Launch site: Taiyaun Space Center, China (TSC)

Note: This is SATELLITE DEBRIS
aabbcc
Your satellite tracking list
Your tracking list is empty




NASA's NSSDC Master Catalog

Two Line Element Set (TLE):
1 37911U 99025ENL 22185.61809834  .00001133  00000-0  90122-3 0  9998
2 37911  99.3591 241.0640 0151832 262.3121  96.0771 13.88172332592186
Source of the keplerian elements: AFSPC